Flag for Finland Weather past 2 weeks in Kuopio, Finland

Now
36 °F

Low clouds.


Feels Like: 31 °F
Forecast: 38 / 49 °F
Wind: 6 mph from Southeast

Location: Kuopio Airport

Current Time: Apr 27, 2015 at 5:54:12 AM

Latest Report: Apr 27, 2015 at 5:20 AM


Visibility: N/A

Pressure: 29.65 "Hg

Humidity: 100%

Dew point: 36 °F

Location of KuopioLocation

Historic Weather in Kuopio — Graph

°F

Kuopio temperature yesterday

Maximum temperature yesterday: 48 °F (at 12:50 PM)
Minimum temperature yesterday: 30 °F (at 1:50 AM)
Average temperature yesterday: 39 °F

Past Weeks' High & Low Weather Summary

 TemperatureHumidityPressure
High54 °F (Apr 21, 3:21 PM)100% (Apr 13, 12:20 AM)30.04 "Hg (Apr 13, 12:20 AM)
Low30 °F (Apr 12, 5:20 AM)34% (Apr 22, 5:50 PM)29.03 "Hg (Apr 23, 8:50 AM)
Average38 °F78%29.63 "Hg
* Reported Apr 12 4:20 AM — Apr 27 4:50 AM, Kuopio, Weather by CustomWeather, © 2015

Note: Actual official high and low records may vary slightly from our data, if they occured in-between our weather recording intervals... More about our weather records

Advertising

Kuopio weather history for previous 24 hours

 ConditionsComfort  
Time TempWeatherWind HumidityBarometerVisibility
4:50 AM
Mon, Apr 27
36 °FLow clouds.6 mph93%29.65 "HgN/A
4:20 AM36 °FLow clouds.7 mph93%29.65 "Hg4 mi
3:50 AM36 °FLow clouds.7 mph93%29.65 "Hg3 mi
3:20 AM36 °FFog.7 mph93%29.65 "Hg3 mi
2:50 AM36 °FLow clouds.7 mph93%29.65 "HgN/A
2:20 AM34 °FLow clouds.7 mph100%29.65 "HgN/A
1:50 AM34 °FLight rain. Low clouds.7 mph100%29.65 "HgN/A
1:20 AM34 °FLight rain. Low clouds.6 mph100%29.68 "Hg4 mi
12:50 AM34 °FLight snow. Mostly cloudy.7 mph100%29.68 "Hg3 mi
12:20 AM34 °FLight rain. Low clouds.6 mph100%29.68 "Hg6 mi
11:50 PM
Sun, Apr 26
34 °FLight rain. Low clouds.6 mph100%29.68 "HgN/A
11:20 PM34 °FLight rain. Low clouds.7 mph100%29.68 "HgN/A
10:50 PM36 °FLight rain. Low clouds.7 mph93%29.68 "HgN/A
10:20 PM36 °FLight rain. Overcast.8 mph93%29.68 "HgN/A
9:50 PM37 °FLight rain. Overcast.10 mph87%29.68 "HgN/A
9:20 PM39 °FLight rain. Overcast.9 mph81%29.68 "HgN/A
8:50 PM39 °FLight rain. Overcast.13 mph75%29.68 "HgN/A
8:20 PM41 °FLight rain. Overcast.17 mph70%29.68 "HgN/A
7:50 PM43 °FPassing clouds.15 mph57%29.65 "HgN/A
7:20 PM45 °FOvercast.12 mph53%29.65 "HgN/A
6:50 PM45 °FSunny.14 mph49%29.65 "Hg10 mi
6:20 PM46 °FSunny.13 mph43%29.65 "Hg10 mi
5:50 PM46 °FOvercast.12 mph50%29.65 "HgN/A
5:20 PM46 °FPartly sunny.12 mph46%29.65 "HgN/A
4:50 PM46 °FPartly sunny.12 mph50%29.65 "HgN/A
4:20 PM48 °FPassing clouds.10 mph46%29.65 "HgN/A
3:50 PM46 °FOvercast.10 mph53%29.65 "HgN/A
3:20 PM46 °FPartly sunny.7 mph53%29.68 "HgN/A
2:50 PM46 °FPartly sunny.8 mph53%29.68 "HgN/A
2:20 PM48 °FPassing clouds.10 mph46%29.68 "HgN/A
1:50 PM48 °FPassing clouds.9 mph50%29.71 "HgN/A
1:20 PM48 °FPassing clouds.9 mph50%29.71 "HgN/A
12:50 PM48 °FSunny.9 mph50%29.71 "Hg10 mi
12:20 PM46 °FPassing clouds.10 mph53%29.71 "HgN/A
11:50 AM46 °FSunny.10 mph50%29.74 "Hg10 mi
11:20 AM46 °FSunny.9 mph50%29.74 "Hg10 mi
10:50 AM43 °FPassing clouds.3 mph61%29.74 "HgN/A
10:20 AM41 °FSunny.5 mph66%29.74 "Hg10 mi
9:50 AM39 °FSunny.5 mph70%29.74 "Hg10 mi
9:20 AM37 °FSunny.6 mph75%29.77 "Hg10 mi
8:50 AM36 °FSunny.5 mph81%29.77 "Hg10 mi
8:20 AM36 °FPassing clouds.3 mph81%29.77 "HgN/A
7:50 AM34 °FSunny.5 mph87%29.77 "Hg10 mi
7:20 AM34 °FSunny.6 mph87%29.77 "Hg10 mi
6:20 AM32 °FSunny.6 mph87%29.77 "Hg10 mi
5:50 AM30 °FClear.5 mph93%29.77 "Hg10 mi
5:20 AM30 °FClear.5 mph100%29.80 "Hg10 mi
Weather by CustomWeather, © 2015

See weather overviewHow to use our weather pages